• Join FlightAware (Why Join?)
  • Login
  • US Flag 
Rudolph Flight #1: Scheduled 
08:47PM EST


 

Airport Tracker/Info


-or-


 

Live Flight TrackerFlight Track Log ✈ FLG4208 ✈ 19-Apr-2013 ✈ KDTW - KAZO

Flight Track Log - Related Links

Times and Time Zones

All times are in EDT time to prevent confusion due to time zone crossing. See the FLG4208 flight status page for this flight to view local times or setup timezone preferences in your user account.

Time Position Orientation Groundspeed Altitude Reporting Facility
EDT Latitude Longitude Course Direction KTS MPH feet Rate Location/Type
11:13AM 42.2058 -83.3556 275° West 146 168 1,400  Level Cleveland Center
11:14AM 42.2067 -83.3836 272° West 180 207 2,900 2,760 Climbing FAA TRACON SMA TRACON (SMA)
11:14AM 42.2086 -83.4089 276° West 201 231 3,900 1,680 Climbing FAA TRACON SMA TRACON (SMA)
11:14AM 42.2089 -83.4306 271° West 226 260 4,000 120 Climbing FAA TRACON SMA TRACON (SMA)
11:15AM 42.2097 -83.4600 272° West 230 265 4,000  Level FAA TRACON SMA TRACON (SMA)
11:15AM 42.2111 -83.5197 272° West 228 262 4,000  Level FAA TRACON SMA TRACON (SMA)
11:16AM 42.2167 -83.6227 270° West  Level FlightAware Approximate
11:16AM 42.2117 -83.5461 272° West 228 262 4,000  Level FAA TRACON SMA TRACON (SMA)
11:16AM 42.2125 -83.5786 272° West 226 260 4,000  Level FAA TRACON SMA TRACON (SMA)
11:16AM 42.2128 -83.6047 271° West 226 260 4,000  Level FAA TRACON SMA TRACON (SMA)
11:17AM 42.2220 -83.7143 275° West  Level FlightAware Approximate
11:17AM 42.2136 -83.6308 272° West 227 261 4,000  Level FAA TRACON SMA TRACON (SMA)
11:17AM 42.2144 -83.6700 272° West 230 265 5,200 2,100 Climbing Cleveland Center
11:18AM 42.2289 -83.8190 275° West  Level FlightAware Approximate
11:18AM 42.2164 -83.7542 272° West 236 272 7,000  Level Cleveland Center
11:19AM 42.2158 -83.8439 270° West 235 270 7,000 120 Level Cleveland Center
11:20AM 42.2178 -83.9281 272° West 238 274 7,300 1,140 Climbing Cleveland Center
11:22AM 42.2222 -84.0803 272° West 283 326 10,000 1,320 Climbing FAA TRACON SMA TRACON (SMA)
11:22AM 42.2225 -84.1133 271° West 292 336 10,000  Level FAA TRACON SMA TRACON (SMA)
11:22AM 42.2231 -84.1494 271° West 295 339 10,000  Level FAA TRACON SMA TRACON (SMA)
11:23AM 42.2236 -84.1900 271° West 297 342 10,000  Level FAA TRACON SMA TRACON (SMA)
11:23AM 42.2239 -84.2247 271° West 298 343 10,000  Level FAA TRACON SMA TRACON (SMA)
11:23AM 42.2247 -84.2597 272° West 302 348 10,000  Level FAA TRACON SMA TRACON (SMA)
11:24AM 42.2244 -84.3042 270° West 305 351 10,000  Level FAA TRACON SMA TRACON (SMA)
11:24AM 42.2250 -84.3397 271° West 307 353 10,000  Level FAA TRACON SMA TRACON (SMA)
11:24AM 42.2258 -84.3753 272° West 307 353 10,000  Level FAA TRACON SMA TRACON (SMA)
11:25AM 42.2247 -84.4169 268° West 307 353 10,000  Level FAA TRACON SMA TRACON (SMA)
11:25AM 42.2272 -84.4550 275° West 307 353 10,000  Level FAA TRACON SMA TRACON (SMA)
11:25AM 42.2275 -84.4906 271° West 306 352 10,000  Level FAA TRACON SMA TRACON (SMA)
11:26AM 42.2281 -84.5325 271° West 305 351 10,000  Level FAA TRACON SMA TRACON (SMA)
11:26AM 42.2281 -84.5431 270° West 305 351 10,000  Level FAA TRACON SMA TRACON (SMA)
11:26AM 42.2281 -84.5431 143° Southeast 305 351 10,000 60 Level FAA TRACON SMA TRACON (SMA)
11:27AM 42.2292 -84.6583 271° West 305 351 10,100 -360 Climbing Chicago Center
11:28AM 42.2303 -84.7583 271° West 276 318 9,500 -1,140 Descending Chicago Center
11:29AM 42.2317 -84.8611 271° West 245 282 7,800 -1,500 Descending Chicago Center
11:30AM 42.2344 -84.9372 273° West 219 252 6,500 -1,260 Descending Chicago Center
11:31AM 42.2450 -85.0075 281° West 199 229 5,300 -1,320 Descending Chicago Center
11:32AM 42.2567 -85.0900 281° West 206 237 3,800 -1,320 Descending Chicago Center
11:33AM 42.2667 -85.1656 280° West 207 238 2,600 -600 Descending Chicago Center
11:34AM 42.2747 -85.2369 279° West 198 228 2,600  Level Chicago Center
11:35AM 42.2833 -85.2978 281° West 177 204 2,600  Level Chicago Center
11:36AM 42.2931 -85.3589 282° West 168 193 2,600  Level Chicago Center
11:37AM 42.3019 -85.4225 281° West 171 197 2,600 -240 Level Chicago Center
11:38AM 42.2983 -85.4950 266° West 165 190 2,200 -420 Descending Chicago Center